Location: Waldport
(44.4270°N, 124.0680°W)
Time: 02:17:45
(UTC-07:00)

ISS - Visible Passes

Search period start: 16 October 2019 00:00
Search period end: 26 October 2019 00:00
Orbit: 411 x 421 km, 51.6° (Epoch: 16 October)

Date Brightness Start Highest point End Pass type
(mag) Time Alt. Az. Time Alt. Az. Time Alt. Az.
22 Oct -0.8 07:07:28 10° S 07:09:49 18° SE 07:12:09 10° E visible
23 Oct -0.4 06:20:42 10° SE 06:21:28 11° SE 06:22:13 10° ESE visible
24 Oct -2.6 07:05:55 10° SW 07:09:09 44° SE 07:12:22 10° ENE visible
25 Oct -1.7 06:17:48 10° SSW 06:20:41 27° SE 06:23:35 10° ENE visible
